Regional Weather Roundup
Issued by NWS

Home | Current Version | Previous Version | Text Only | Print | Product List | Glossary On
Versions: 1 2 3 4 5 6 7 8 9 10 11 12 13 14 15 16 17 18 19 20 21 22 23 24 25 26 27 28 29 30 31 32 33 34 35 36 37 38 39 40 41 42 43 44 45 46 47 48 49 50
000
ASUS44 KOUN 241310
RWROK

WEATHER ROUNDUP FOR OKLAHOMA
NATIONAL WEATHER SERVICE NORMAN OK
800 AM CDT SAT JUN 24 2017

NOTE: "FAIR" INDICATES FEW OR NO CLOUDS BELOW 12,000 FEET WITH NO
      SIGNIFICANT WEATHER AND/OR OBSTRUCTIONS TO VISIBILITY.

OKZ001>007-009>012-014-015-017-241400-
NORTHWEST OKLAHOMA AND THE PANHANDLE

CITY           SKY/WX    TMP DP  RH WIND       PRES   REMARKS
GAGE           CLOUDY    68  51  54 CALM      30.24R
GUYMON         CLOUDY    65  56  72 CALM      30.26R
ENID/WOODRING  LGT RAIN  68  59  73 CALM      30.20R
$$

OKZ016-021>023-033>039-044-045-241400-
SOUTHWEST OKLAHOMA

CITY           SKY/WX    TMP DP  RH WIND       PRES   REMARKS
LAWTON/REGL    LGT RAIN  65  62  90 E14       30.16F
LAWTON/FT SILL LGT RAIN  64  62  94 E9        30.15F
FREDERICK      LGT RAIN  66  62  87 NE7       30.17R
CLINTON        CLOUDY    68  55  63 N3        30.23R
HOBART         CLOUDY    65  61  87 S5        30.21R
ALTUS AFB      CLOUDY    64  61  88 E6        30.21R
$$

OKZ018>020-024>031-241400-
CENTRAL OKLAHOMA

CITY           SKY/WX    TMP DP  RH WIND       PRES   REMARKS
OKLAHOMA CITY  CLOUDY    70  52  52 E10       30.19R
OKC/WILEY POST CLOUDY    71  54  54 E9        30.19R
OKC/TINKER AFB PTSUNNY   68  55  64 E6        30.19R
STILLWATER     CLOUDY    65  58  78 SE5       30.19R
GUTHRIE        CLOUDY    69  56  62 E5        30.19R
$$

OKZ008-013-054>072-241400-
NORTHEAST OKLAHOMA

CITY           SKY/WX    TMP DP  RH WIND       PRES   REMARKS
TULSA          CLOUDY    69  58  67 CALM      30.17R
TULSA/JONES    CLOUDY    70  58  65 CALM      30.19R
PONCA CITY     MOSUNNY   70  55  59 E8        30.19R
BARTLESVILLE   PTSUNNY   66  59  78 CALM      30.20R
MUSKOGEE       CLOUDY    71  57  61 NE3       30.17R
$$

OKZ032-040>043-046>053-073>077-241400-
SOUTH CENTRAL/SOUTHEAST OKLAHOMA

CITY           SKY/WX    TMP DP  RH WIND       PRES   REMARKS
ARDMORE/DWNTWN LGT RAIN  68  64  88 NE5       30.15S
MCALESTER      CLOUDY    73  58  59 VRB5      30.17R
$$





USA.gov is the U.S. government's official web portal to all federal, state and local government web resources and services.